Year,Month,Day,Hour,Minute,Value (Times are PST for temperature in C)
2019,09,30,00,00,5.70
2019,09,30,00,01,5.70
2019,09,30,00,02,5.70
2019,09,30,00,03,5.60
2019,09,30,00,04,5.60
2019,09,30,00,05,5.60
2019,09,30,00,06,5.60
2019,09,30,00,07,5.50
2019,09,30,00,08,5.50
2019,09,30,00,09,5.50
2019,09,30,00,10,5.50
2019,09,30,00,11,5.50
2019,09,30,00,12,5.50
2019,09,30,00,13,5.50
2019,09,30,00,14,5.40
2019,09,30,00,15,5.40
2019,09,30,00,16,5.40
2019,09,30,00,17,5.40
2019,09,30,00,18,5.40
2019,09,30,00,19,5.40
2019,09,30,00,20,5.40
2019,09,30,00,21,5.40
2019,09,30,00,22,5.40
2019,09,30,00,23,5.40
2019,09,30,00,24,5.40
2019,09,30,00,25,5.40
2019,09,30,00,26,5.40
2019,09,30,00,27,5.40
2019,09,30,00,28,5.40
2019,09,30,00,29,5.40
2019,09,30,00,30,5.30
2019,09,30,00,31,5.30
2019,09,30,00,32,5.30
2019,09,30,00,33,5.30
2019,09,30,00,34,5.30
2019,09,30,00,35,5.30
2019,09,30,00,36,5.30
2019,09,30,00,37,5.30
2019,09,30,00,38,5.30
2019,09,30,00,39,5.40
2019,09,30,00,40,5.40
2019,09,30,00,41,5.50
2019,09,30,00,42,5.60
2019,09,30,00,43,5.60
2019,09,30,00,44,5.70
2019,09,30,00,45,5.70
2019,09,30,00,46,5.70
2019,09,30,00,47,5.80
2019,09,30,00,48,5.80
2019,09,30,00,49,5.80
2019,09,30,00,50,5.80
2019,09,30,00,51,5.80
2019,09,30,00,52,5.80
2019,09,30,00,53,5.70
2019,09,30,00,54,5.70
2019,09,30,00,55,5.70
2019,09,30,00,56,5.60
2019,09,30,00,57,5.60
2019,09,30,00,58,5.50
2019,09,30,00,59,5.50
2019,09,30,01,00,5.40
2019,09,30,01,01,5.40
2019,09,30,01,02,5.40
2019,09,30,01,03,5.40
2019,09,30,01,04,5.30
2019,09,30,01,05,5.30
2019,09,30,01,06,5.30
2019,09,30,01,07,5.20
2019,09,30,01,08,5.20
2019,09,30,01,09,5.20
2019,09,30,01,10,5.30
2019,09,30,01,11,5.30
2019,09,30,01,12,5.30
2019,09,30,01,13,5.30
2019,09,30,01,14,5.30
2019,09,30,01,15,5.30
2019,09,30,01,16,5.30
2019,09,30,01,17,5.30
2019,09,30,01,18,5.30
2019,09,30,01,19,5.30
2019,09,30,01,20,5.30
2019,09,30,01,21,5.30
2019,09,30,01,22,5.30
2019,09,30,01,23,5.30
2019,09,30,01,24,5.30
2019,09,30,01,25,5.30
2019,09,30,01,26,5.30
2019,09,30,01,27,5.20
2019,09,30,01,28,5.20
2019,09,30,01,29,5.20
2019,09,30,01,30,5.20
2019,09,30,01,31,5.10
2019,09,30,01,32,5.10
2019,09,30,01,33,5.10
2019,09,30,01,34,5.10
2019,09,30,01,35,5.00
2019,09,30,01,36,5.00
2019,09,30,01,37,5.00
2019,09,30,01,38,4.90
2019,09,30,01,39,4.90
2019,09,30,01,40,4.90
2019,09,30,01,41,4.90
2019,09,30,01,42,4.90
2019,09,30,01,43,4.90
2019,09,30,01,44,4.90
2019,09,30,01,45,4.80
2019,09,30,01,46,4.80
2019,09,30,01,47,4.80
2019,09,30,01,48,4.80
2019,09,30,01,49,4.80
2019,09,30,01,50,4.80
2019,09,30,01,51,4.80
2019,09,30,01,52,4.80
2019,09,30,01,53,4.70
2019,09,30,01,54,4.70
2019,09,30,01,55,4.70
2019,09,30,01,56,4.70
2019,09,30,01,57,4.70
2019,09,30,01,58,4.70
2019,09,30,01,59,4.60
2019,09,30,02,00,4.60
2019,09,30,02,01,4.60
2019,09,30,02,02,4.60
2019,09,30,02,03,4.60
2019,09,30,02,04,4.60
2019,09,30,02,05,4.60
2019,09,30,02,06,4.60
2019,09,30,02,07,4.50
2019,09,30,02,08,4.50
2019,09,30,02,09,4.50
2019,09,30,02,10,4.50
2019,09,30,02,11,4.50
2019,09,30,02,12,4.50
2019,09,30,02,13,4.50
2019,09,30,02,14,4.50
2019,09,30,02,15,4.50
2019,09,30,02,16,4.50
2019,09,30,02,17,4.50
2019,09,30,02,18,4.50
2019,09,30,02,19,4.50
2019,09,30,02,20,4.50
2019,09,30,02,21,4.50
2019,09,30,02,22,4.50
2019,09,30,02,23,4.50
2019,09,30,02,24,4.50
2019,09,30,02,25,4.60
2019,09,30,02,26,4.50
2019,09,30,02,27,4.50
2019,09,30,02,28,4.50
2019,09,30,02,29,4.50
2019,09,30,02,30,4.40
2019,09,30,02,31,4.40
2019,09,30,02,32,4.40
2019,09,30,02,33,4.40
2019,09,30,02,34,4.40
2019,09,30,02,35,4.40
2019,09,30,02,36,4.40
2019,09,30,02,37,4.30
2019,09,30,02,38,4.30
2019,09,30,02,39,4.30
2019,09,30,02,40,4.30
2019,09,30,02,41,4.30
2019,09,30,02,42,4.30
2019,09,30,02,43,4.30
2019,09,30,02,44,4.30
2019,09,30,02,45,4.20
2019,09,30,02,46,4.20
2019,09,30,02,47,4.20
2019,09,30,02,48,4.20
2019,09,30,02,49,4.20
2019,09,30,02,50,4.20
2019,09,30,02,51,4.20
2019,09,30,02,52,4.20
2019,09,30,02,53,4.20
2019,09,30,02,54,4.20
2019,09,30,02,55,4.20
2019,09,30,02,56,4.20
2019,09,30,02,57,4.20
2019,09,30,02,58,4.20
2019,09,30,02,59,4.20
2019,09,30,03,00,4.10
2019,09,30,03,01,4.10
2019,09,30,03,02,4.10
2019,09,30,03,03,4.10
2019,09,30,03,04,4.10
2019,09,30,03,05,4.10
2019,09,30,03,06,4.00
2019,09,30,03,07,4.00
2019,09,30,03,08,4.00
2019,09,30,03,09,4.00
2019,09,30,03,10,4.00
2019,09,30,03,11,4.00
2019,09,30,03,12,4.00
2019,09,30,03,13,4.10
2019,09,30,03,14,4.10
2019,09,30,03,15,4.10
2019,09,30,03,16,4.10
2019,09,30,03,17,4.10
2019,09,30,03,18,4.10
2019,09,30,03,19,4.10
2019,09,30,03,20,4.00
2019,09,30,03,21,4.00
2019,09,30,03,22,4.00
2019,09,30,03,23,4.00
2019,09,30,03,24,4.00
2019,09,30,03,25,3.90
2019,09,30,03,26,4.00
2019,09,30,03,27,4.00
2019,09,30,03,28,4.00
2019,09,30,03,29,4.10
2019,09,30,03,30,4.10
2019,09,30,03,31,4.10
2019,09,30,03,32,4.10
2019,09,30,03,33,4.20
2019,09,30,03,34,4.20
2019,09,30,03,35,4.20
2019,09,30,03,36,4.20
2019,09,30,03,37,4.20
2019,09,30,03,38,4.20
2019,09,30,03,39,4.20
2019,09,30,03,40,4.20
2019,09,30,03,41,4.20
2019,09,30,03,42,4.20
2019,09,30,03,43,4.20
2019,09,30,03,44,4.20
2019,09,30,03,45,4.20
2019,09,30,03,46,4.20
2019,09,30,03,47,4.20
2019,09,30,03,48,4.10
2019,09,30,03,49,4.10
2019,09,30,03,50,4.10
2019,09,30,03,51,4.10
2019,09,30,03,52,4.10
2019,09,30,03,53,4.10
2019,09,30,03,54,4.00
2019,09,30,03,55,4.00
2019,09,30,03,56,4.00
2019,09,30,03,57,4.00
2019,09,30,03,58,4.00
2019,09,30,03,59,4.00
2019,09,30,04,00,4.00
2019,09,30,04,01,3.90
2019,09,30,04,02,3.90
2019,09,30,04,03,3.90
2019,09,30,04,04,3.90
2019,09,30,04,05,3.80
2019,09,30,04,06,3.80
2019,09,30,04,07,3.80
2019,09,30,04,08,3.80
2019,09,30,04,09,3.80
2019,09,30,04,10,3.80
2019,09,30,04,11,3.70
2019,09,30,04,12,3.70
2019,09,30,04,13,3.70
2019,09,30,04,14,3.70
2019,09,30,04,15,3.70
2019,09,30,04,16,3.70
2019,09,30,04,17,3.70
2019,09,30,04,18,3.70
2019,09,30,04,19,3.60
2019,09,30,04,20,3.60
2019,09,30,04,21,3.60
2019,09,30,04,22,3.60
2019,09,30,04,23,3.60
2019,09,30,04,24,3.60
2019,09,30,04,25,3.60
2019,09,30,04,26,3.60
2019,09,30,04,27,3.60
2019,09,30,04,28,3.60
2019,09,30,04,29,3.60
2019,09,30,04,30,3.60
2019,09,30,04,31,3.60
2019,09,30,04,32,3.70
2019,09,30,04,33,3.70
2019,09,30,04,34,3.70
2019,09,30,04,35,3.70
2019,09,30,04,36,3.80
2019,09,30,04,37,3.80
2019,09,30,04,38,3.80
2019,09,30,04,39,3.80
2019,09,30,04,40,3.80
2019,09,30,04,41,3.80
2019,09,30,04,42,3.80
2019,09,30,04,43,3.80
2019,09,30,04,44,3.80
2019,09,30,04,45,3.80
2019,09,30,04,46,3.80
2019,09,30,04,47,3.80
2019,09,30,04,48,3.80
2019,09,30,04,49,3.80
2019,09,30,04,50,3.80
2019,09,30,04,51,3.80
2019,09,30,04,52,3.70
2019,09,30,04,53,3.70
2019,09,30,04,54,3.70
2019,09,30,04,55,3.70
2019,09,30,04,56,3.70
2019,09,30,04,57,3.70
2019,09,30,04,58,3.70
2019,09,30,04,59,3.70
2019,09,30,05,00,3.70
2019,09,30,05,01,3.70
2019,09,30,05,02,3.70
2019,09,30,05,03,3.70
2019,09,30,05,04,3.70
2019,09,30,05,05,3.70
2019,09,30,05,06,3.70
2019,09,30,05,07,3.70
2019,09,30,05,08,3.80
2019,09,30,05,09,3.70
2019,09,30,05,10,3.70
2019,09,30,05,11,3.70
2019,09,30,05,12,3.70
2019,09,30,05,13,3.70
2019,09,30,05,14,3.70
2019,09,30,05,15,3.70
2019,09,30,05,16,3.60
2019,09,30,05,17,3.60
2019,09,30,05,18,3.60
2019,09,30,05,19,3.60
2019,09,30,05,20,3.60
2019,09,30,05,21,3.60
2019,09,30,05,22,3.60
2019,09,30,05,23,3.60
2019,09,30,05,24,3.60
2019,09,30,05,25,3.60
2019,09,30,05,26,3.60
2019,09,30,05,27,3.60
2019,09,30,05,28,3.60
2019,09,30,05,29,3.60
2019,09,30,05,30,3.50
2019,09,30,05,31,3.50
2019,09,30,05,32,3.50
2019,09,30,05,33,3.50
2019,09,30,05,34,3.40
2019,09,30,05,35,3.40
2019,09,30,05,36,3.40
2019,09,30,05,37,3.40
2019,09,30,05,38,3.30
2019,09,30,05,39,3.30
2019,09,30,05,40,3.30
2019,09,30,05,41,3.30
2019,09,30,05,42,3.30
2019,09,30,05,43,3.30
2019,09,30,05,44,3.30
2019,09,30,05,45,3.20
2019,09,30,05,46,3.20
2019,09,30,05,47,3.20
2019,09,30,05,48,3.20
2019,09,30,05,49,3.20
2019,09,30,05,50,3.20
2019,09,30,05,51,3.20
2019,09,30,05,52,3.20
2019,09,30,05,53,3.20
2019,09,30,05,54,3.20
2019,09,30,05,55,3.20
2019,09,30,05,56,3.20
2019,09,30,05,57,3.10
2019,09,30,05,58,3.10
2019,09,30,05,59,3.10
2019,09,30,06,00,3.10
2019,09,30,06,01,3.10
2019,09,30,06,02,3.10
2019,09,30,06,03,3.10
2019,09,30,06,04,3.10
2019,09,30,06,05,3.10
2019,09,30,06,06,3.10
2019,09,30,06,07,3.10
2019,09,30,06,08,3.10
2019,09,30,06,09,3.10
2019,09,30,06,10,3.10
2019,09,30,06,11,3.10
2019,09,30,06,12,3.10
2019,09,30,06,13,3.10
2019,09,30,06,14,3.10
2019,09,30,06,15,3.10
2019,09,30,06,16,3.10
2019,09,30,06,17,3.10
2019,09,30,06,18,3.10
2019,09,30,06,19,3.10
2019,09,30,06,20,3.10
2019,09,30,06,21,3.10
2019,09,30,06,22,3.20
2019,09,30,06,23,3.10
2019,09,30,06,24,3.10
2019,09,30,06,25,3.10
2019,09,30,06,26,3.10
2019,09,30,06,27,3.10
2019,09,30,06,28,3.10
2019,09,30,06,29,3.10
2019,09,30,06,30,3.10
2019,09,30,06,31,3.10
2019,09,30,06,32,3.10
2019,09,30,06,33,3.00
2019,09,30,06,34,3.00
2019,09,30,06,35,3.00
2019,09,30,06,36,3.00
2019,09,30,06,37,2.90
2019,09,30,06,38,2.90
2019,09,30,06,39,2.90
2019,09,30,06,40,2.90
2019,09,30,06,41,2.90
2019,09,30,06,42,2.80
2019,09,30,06,43,2.80
2019,09,30,06,44,2.80
2019,09,30,06,45,2.80
2019,09,30,06,46,2.80
2019,09,30,06,47,2.80
2019,09,30,06,48,2.80
2019,09,30,06,49,2.80
2019,09,30,06,50,2.80
2019,09,30,06,51,2.80
2019,09,30,06,52,2.90
2019,09,30,06,53,2.90
2019,09,30,06,54,2.90
2019,09,30,06,55,3.00
2019,09,30,06,56,3.00
2019,09,30,06,57,2.90
2019,09,30,06,58,3.00
2019,09,30,06,59,3.00
2019,09,30,07,00,3.00
2019,09,30,07,01,3.00
2019,09,30,07,02,3.00
2019,09,30,07,03,3.10
2019,09,30,07,04,3.10
2019,09,30,07,05,3.10
2019,09,30,07,06,3.10
2019,09,30,07,07,3.10
2019,09,30,07,08,3.10
2019,09,30,07,09,3.10
2019,09,30,07,10,3.10
2019,09,30,07,11,3.10
2019,09,30,07,12,3.10
2019,09,30,07,13,3.10
2019,09,30,07,14,3.10
2019,09,30,07,15,3.10
2019,09,30,07,16,3.10
2019,09,30,07,17,3.10
2019,09,30,07,18,3.10
2019,09,30,07,19,3.10
2019,09,30,07,20,3.10
2019,09,30,07,21,3.10
2019,09,30,07,22,3.10
2019,09,30,07,23,3.10
2019,09,30,07,24,3.10
2019,09,30,07,25,3.10
2019,09,30,07,26,3.10
2019,09,30,07,27,3.10
2019,09,30,07,28,3.10
2019,09,30,07,29,3.10
2019,09,30,07,30,3.10
2019,09,30,07,31,3.10
2019,09,30,07,32,3.10
2019,09,30,07,33,3.10
2019,09,30,07,34,3.10
2019,09,30,07,35,3.10
2019,09,30,07,36,3.10
2019,09,30,07,37,3.10
2019,09,30,07,38,3.10
2019,09,30,07,39,3.10
2019,09,30,07,40,3.10
2019,09,30,07,41,3.10
2019,09,30,07,42,3.10
2019,09,30,07,43,3.10
2019,09,30,07,44,3.10
2019,09,30,07,45,3.10
2019,09,30,07,46,3.10
2019,09,30,07,47,3.10
2019,09,30,07,48,3.10
2019,09,30,07,49,3.10
2019,09,30,07,50,3.10
2019,09,30,07,51,3.10
2019,09,30,07,52,3.20
2019,09,30,07,53,3.20
2019,09,30,07,54,3.20
2019,09,30,07,55,3.20
2019,09,30,07,56,3.20
2019,09,30,07,57,3.20
2019,09,30,07,58,3.20
2019,09,30,07,59,3.20
2019,09,30,08,00,3.20
2019,09,30,08,01,3.20
2019,09,30,08,02,3.20
2019,09,30,08,03,3.20
2019,09,30,08,04,3.20
2019,09,30,08,05,3.20
2019,09,30,08,06,3.20
2019,09,30,08,07,3.20
2019,09,30,08,08,3.20
2019,09,30,08,09,3.20
2019,09,30,08,10,3.20
2019,09,30,08,11,3.20
2019,09,30,08,12,3.20
2019,09,30,08,13,3.20
2019,09,30,08,14,3.20
2019,09,30,08,15,3.30
2019,09,30,08,16,3.30
2019,09,30,08,17,3.30
2019,09,30,08,18,3.30
2019,09,30,08,19,3.30
2019,09,30,08,20,3.30
2019,09,30,08,21,3.30
2019,09,30,08,22,3.30
2019,09,30,08,23,3.30
2019,09,30,08,24,3.30
2019,09,30,08,25,3.30
2019,09,30,08,26,3.30
2019,09,30,08,27,3.30
2019,09,30,08,28,3.30
2019,09,30,08,29,3.30
2019,09,30,08,30,3.30
2019,09,30,08,31,3.30
2019,09,30,08,32,3.30
2019,09,30,08,33,3.30
2019,09,30,08,34,3.30
2019,09,30,08,35,3.40
2019,09,30,08,36,3.40
2019,09,30,08,37,3.40
2019,09,30,08,38,3.40
2019,09,30,08,39,3.50
2019,09,30,08,40,3.50
2019,09,30,08,41,3.60
2019,09,30,08,42,3.60
2019,09,30,08,43,3.70
2019,09,30,08,44,3.70
2019,09,30,08,45,3.70
2019,09,30,08,46,3.80
2019,09,30,08,47,3.80
2019,09,30,08,48,3.80
2019,09,30,08,49,3.90
2019,09,30,08,50,3.90
2019,09,30,08,51,3.90
2019,09,30,08,52,3.90
2019,09,30,08,53,3.90
2019,09,30,08,54,4.00
2019,09,30,08,55,4.00
2019,09,30,08,56,4.10
2019,09,30,08,57,4.10
2019,09,30,08,58,4.20
2019,09,30,08,59,4.30
2019,09,30,09,00,4.30
2019,09,30,09,01,4.40
2019,09,30,09,02,4.40
2019,09,30,09,03,4.40
2019,09,30,09,04,4.50
2019,09,30,09,05,4.60
2019,09,30,09,06,4.70
2019,09,30,09,07,4.70
2019,09,30,09,08,4.80
2019,09,30,09,09,4.80
2019,09,30,09,10,4.90
2019,09,30,09,11,5.00
2019,09,30,09,12,5.00
2019,09,30,09,13,5.00
2019,09,30,09,14,5.10
2019,09,30,09,15,5.10
2019,09,30,09,16,5.10
2019,09,30,09,17,5.20
2019,09,30,09,18,5.30
2019,09,30,09,19,5.30
2019,09,30,09,20,5.40
2019,09,30,09,21,5.50
2019,09,30,09,22,5.60
2019,09,30,09,23,5.70
2019,09,30,09,24,5.70
2019,09,30,09,25,5.80
2019,09,30,09,26,5.80
2019,09,30,09,27,5.90
2019,09,30,09,28,6.00
2019,09,30,09,29,6.00
2019,09,30,09,30,6.10
2019,09,30,09,31,6.20
2019,09,30,09,32,6.30
2019,09,30,09,33,6.40
2019,09,30,09,34,6.50
2019,09,30,09,35,6.60
2019,09,30,09,36,6.70
2019,09,30,09,37,6.70
2019,09,30,09,38,6.80
2019,09,30,09,39,6.80
2019,09,30,09,40,6.90
2019,09,30,09,41,7.00
2019,09,30,09,42,7.10
2019,09,30,09,43,7.20
2019,09,30,09,44,7.30
2019,09,30,09,45,7.30
2019,09,30,09,46,7.40
2019,09,30,09,47,7.40
2019,09,30,09,48,7.40
2019,09,30,09,49,7.40
2019,09,30,09,50,7.50
2019,09,30,09,51,7.50
2019,09,30,09,52,7.50
2019,09,30,09,53,7.50
2019,09,30,09,54,7.60
2019,09,30,09,55,7.60
2019,09,30,09,56,7.60
2019,09,30,09,57,7.70
2019,09,30,09,58,7.70
2019,09,30,09,59,7.80
2019,09,30,10,00,7.80
2019,09,30,10,01,7.90
2019,09,30,10,02,7.90
2019,09,30,10,03,8.00
2019,09,30,10,04,8.10
2019,09,30,10,05,8.10
2019,09,30,10,06,8.20
2019,09,30,10,07,8.20
2019,09,30,10,08,8.30
2019,09,30,10,09,8.30
2019,09,30,10,10,8.40
2019,09,30,10,11,8.40
2019,09,30,10,12,8.50
2019,09,30,10,13,8.60
2019,09,30,10,14,8.70
2019,09,30,10,15,8.70
2019,09,30,10,16,8.80
2019,09,30,10,17,8.90
2019,09,30,10,18,9.00
2019,09,30,10,19,9.20
2019,09,30,10,20,9.20
2019,09,30,10,21,9.30
2019,09,30,10,22,9.30
2019,09,30,10,23,9.40
2019,09,30,10,24,9.40
2019,09,30,10,25,9.50
2019,09,30,10,26,9.60
2019,09,30,10,27,9.60
2019,09,30,10,28,9.70
2019,09,30,10,29,9.70
2019,09,30,10,30,9.70
2019,09,30,10,31,9.80
2019,09,30,10,32,9.90
2019,09,30,10,33,10.00
2019,09,30,10,34,10.00
2019,09,30,10,35,10.10
2019,09,30,10,36,10.00
2019,09,30,10,37,10.00
2019,09,30,10,38,10.00
2019,09,30,10,39,10.00
2019,09,30,10,40,10.00
2019,09,30,10,41,10.10
2019,09,30,10,42,10.10
2019,09,30,10,43,10.10
2019,09,30,10,44,10.20
2019,09,30,10,45,10.20
2019,09,30,10,46,10.20
2019,09,30,10,47,10.20
2019,09,30,10,48,10.20
2019,09,30,10,49,10.30
2019,09,30,10,50,10.30
2019,09,30,10,51,10.30
2019,09,30,10,52,10.40
2019,09,30,10,53,10.40
2019,09,30,10,54,10.50
2019,09,30,10,55,10.60
2019,09,30,10,56,10.60
2019,09,30,10,57,10.60
2019,09,30,10,58,10.70
2019,09,30,10,59,10.70
2019,09,30,11,00,10.80
2019,09,30,11,01,10.80
2019,09,30,11,02,10.80
2019,09,30,11,03,10.90
2019,09,30,11,04,11.00
2019,09,30,11,05,11.10
2019,09,30,11,06,11.20
2019,09,30,11,07,11.30
2019,09,30,11,08,11.30
2019,09,30,11,09,11.40
2019,09,30,11,10,11.50
2019,09,30,11,11,11.60
2019,09,30,11,12,11.70
2019,09,30,11,13,11.80
2019,09,30,11,14,11.90
2019,09,30,11,15,11.90
2019,09,30,11,16,12.00
2019,09,30,11,17,12.10
2019,09,30,11,18,12.20
2019,09,30,11,19,12.30
2019,09,30,11,20,12.40
2019,09,30,11,21,12.50
2019,09,30,11,22,12.70
2019,09,30,11,23,12.80
2019,09,30,11,24,12.80
2019,09,30,11,25,12.90
2019,09,30,11,26,13.00
2019,09,30,11,27,13.10
2019,09,30,11,28,13.10
2019,09,30,11,29,13.20
2019,09,30,11,30,13.30
2019,09,30,11,31,13.30
2019,09,30,11,32,13.30
2019,09,30,11,33,13.40
2019,09,30,11,34,13.40
2019,09,30,11,35,13.40
2019,09,30,11,36,13.30
2019,09,30,11,37,13.30
2019,09,30,11,38,13.30
2019,09,30,11,39,13.30
2019,09,30,11,40,13.40
2019,09,30,11,41,13.40
2019,09,30,11,42,13.50
2019,09,30,11,43,13.50
2019,09,30,11,44,13.60
2019,09,30,11,45,13.70
2019,09,30,11,46,13.70
2019,09,30,11,47,13.80
2019,09,30,11,48,13.90
2019,09,30,11,49,13.90
2019,09,30,11,50,13.90
2019,09,30,11,51,13.80
2019,09,30,11,52,13.70
2019,09,30,11,53,13.70
2019,09,30,11,54,13.60
2019,09,30,11,55,13.60
2019,09,30,11,56,13.60
2019,09,30,11,57,13.60
2019,09,30,11,58,13.60
2019,09,30,11,59,13.60
2019,09,30,12,00,13.50
2019,09,30,12,01,13.50
2019,09,30,12,02,13.40
2019,09,30,12,03,13.40
2019,09,30,12,04,13.40
2019,09,30,12,05,13.50
2019,09,30,12,06,13.60
2019,09,30,12,07,13.60
2019,09,30,12,08,13.70
2019,09,30,12,09,13.80
2019,09,30,12,10,13.80
2019,09,30,12,11,13.90
2019,09,30,12,12,13.90
2019,09,30,12,13,13.90
2019,09,30,12,14,14.00
2019,09,30,12,15,14.00
2019,09,30,12,16,14.10
2019,09,30,12,17,14.10
2019,09,30,12,18,14.10
2019,09,30,12,19,14.10
2019,09,30,12,20,14.20
2019,09,30,12,21,14.20
2019,09,30,12,22,14.10
2019,09,30,12,23,14.10
2019,09,30,12,24,14.10
2019,09,30,12,25,14.00
2019,09,30,12,26,14.00
2019,09,30,12,27,14.00
2019,09,30,12,28,14.00
2019,09,30,12,29,14.10
2019,09,30,12,30,14.10
2019,09,30,12,31,14.20
2019,09,30,12,32,14.30
2019,09,30,12,33,14.30
2019,09,30,12,34,14.40
2019,09,30,12,35,14.40
2019,09,30,12,36,14.50
2019,09,30,12,37,14.50
2019,09,30,12,38,14.60
2019,09,30,12,39,14.60
2019,09,30,12,40,14.60
2019,09,30,12,41,14.50
2019,09,30,12,42,14.50
2019,09,30,12,43,14.50
2019,09,30,12,44,14.50
2019,09,30,12,45,14.50
2019,09,30,12,46,14.50
2019,09,30,12,47,14.60
2019,09,30,12,48,14.60
2019,09,30,12,49,14.70
2019,09,30,12,50,14.70
2019,09,30,12,51,14.70
2019,09,30,12,52,14.80
2019,09,30,12,53,14.70
2019,09,30,12,54,14.60
2019,09,30,12,55,14.50
2019,09,30,12,56,14.40
2019,09,30,12,57,14.30
2019,09,30,12,58,14.30
2019,09,30,12,59,14.30
2019,09,30,13,00,14.30
2019,09,30,13,01,14.30
2019,09,30,13,02,14.20
2019,09,30,13,03,14.20
2019,09,30,13,04,14.20
2019,09,30,13,05,14.10
2019,09,30,13,06,14.10
2019,09,30,13,07,14.20
2019,09,30,13,08,14.20
2019,09,30,13,09,14.20
2019,09,30,13,10,14.30
2019,09,30,13,11,14.30
2019,09,30,13,12,14.40
2019,09,30,13,13,14.40
2019,09,30,13,14,14.40
2019,09,30,13,15,14.50
2019,09,30,13,16,14.50
2019,09,30,13,17,14.50
2019,09,30,13,18,14.60
2019,09,30,13,19,14.60
2019,09,30,13,20,14.70
2019,09,30,13,21,14.80
2019,09,30,13,22,15.00
2019,09,30,13,23,15.10
2019,09,30,13,24,15.20
2019,09,30,13,25,15.20
2019,09,30,13,26,15.20
2019,09,30,13,27,15.30
2019,09,30,13,28,15.30
2019,09,30,13,29,15.30
2019,09,30,13,30,15.40
2019,09,30,13,31,15.50
2019,09,30,13,32,15.60
2019,09,30,13,33,15.60
2019,09,30,13,34,15.60
2019,09,30,13,35,15.60
2019,09,30,13,36,15.60
2019,09,30,13,37,15.60
2019,09,30,13,38,15.50
2019,09,30,13,39,15.50
2019,09,30,13,40,15.50
2019,09,30,13,41,15.50
2019,09,30,13,42,15.50
2019,09,30,13,43,15.50
2019,09,30,13,44,15.30
2019,09,30,13,45,15.20
2019,09,30,13,46,15.20
2019,09,30,13,47,15.10
2019,09,30,13,48,15.10
2019,09,30,13,49,15.10
2019,09,30,13,50,15.10
2019,09,30,13,51,15.10
2019,09,30,13,52,15.00
2019,09,30,13,53,14.90
2019,09,30,13,54,14.90
2019,09,30,13,55,14.80
2019,09,30,13,56,14.70
2019,09,30,13,57,14.60
2019,09,30,13,58,14.50
2019,09,30,13,59,14.40
2019,09,30,14,00,14.40
2019,09,30,14,01,14.40
2019,09,30,14,02,14.40
2019,09,30,14,03,14.40
2019,09,30,14,04,14.40
2019,09,30,14,05,14.40
2019,09,30,14,06,14.30
2019,09,30,14,07,14.30
2019,09,30,14,08,14.40
2019,09,30,14,09,14.40
2019,09,30,14,10,14.40
2019,09,30,14,11,14.50
2019,09,30,14,12,14.50
2019,09,30,14,13,14.60
2019,09,30,14,14,14.60
2019,09,30,14,15,14.60
2019,09,30,14,16,14.60
2019,09,30,14,17,14.70
2019,09,30,14,18,14.70
2019,09,30,14,19,14.80
2019,09,30,14,20,14.80
2019,09,30,14,21,14.80
2019,09,30,14,22,14.80
2019,09,30,14,23,14.80
2019,09,30,14,24,14.70
2019,09,30,14,25,14.70
2019,09,30,14,26,14.70
2019,09,30,14,27,14.60
2019,09,30,14,28,14.50
2019,09,30,14,29,14.50
2019,09,30,14,30,14.50
2019,09,30,14,31,14.60
2019,09,30,14,32,14.60
2019,09,30,14,33,14.60
2019,09,30,14,34,14.60
2019,09,30,14,35,14.60
2019,09,30,14,36,14.60
2019,09,30,14,37,14.60
2019,09,30,14,38,14.70
2019,09,30,14,39,14.70
2019,09,30,14,40,14.80
2019,09,30,14,41,14.80
2019,09,30,14,42,14.90
2019,09,30,14,43,15.00
2019,09,30,14,44,15.00
2019,09,30,14,45,15.10
2019,09,30,14,46,15.10
2019,09,30,14,47,15.10
2019,09,30,14,48,15.10
2019,09,30,14,49,15.10
2019,09,30,14,50,15.00
2019,09,30,14,51,14.90
2019,09,30,14,52,14.90
2019,09,30,14,53,14.80
2019,09,30,14,54,14.70
2019,09,30,14,55,14.60
2019,09,30,14,56,14.50
2019,09,30,14,57,14.40
2019,09,30,14,58,14.40
2019,09,30,14,59,14.30
2019,09,30,15,00,14.20
2019,09,30,15,01,14.20
2019,09,30,15,02,14.20
2019,09,30,15,03,14.20
2019,09,30,15,04,14.20
2019,09,30,15,05,14.20
2019,09,30,15,06,14.10
2019,09,30,15,07,14.20
2019,09,30,15,08,14.10
2019,09,30,15,09,14.10
2019,09,30,15,10,14.10
2019,09,30,15,11,14.10
2019,09,30,15,12,13.90
2019,09,30,15,13,13.90
2019,09,30,15,14,13.80
2019,09,30,15,15,13.80
2019,09,30,15,16,13.80
2019,09,30,15,17,13.80
2019,09,30,15,18,13.80
2019,09,30,15,19,13.80
2019,09,30,15,20,13.80
2019,09,30,15,21,13.80
2019,09,30,15,22,13.80
2019,09,30,15,23,13.80
2019,09,30,15,24,13.90
2019,09,30,15,25,14.00
2019,09,30,15,26,14.00
2019,09,30,15,27,14.00
2019,09,30,15,28,14.10
2019,09,30,15,29,14.10
2019,09,30,15,30,14.20
2019,09,30,15,31,14.20
2019,09,30,15,32,14.20
2019,09,30,15,33,14.20
2019,09,30,15,34,14.20
2019,09,30,15,35,14.20
2019,09,30,15,36,14.20
2019,09,30,15,37,14.20
2019,09,30,15,38,14.20
2019,09,30,15,39,14.20
2019,09,30,15,40,14.10
2019,09,30,15,41,14.10
2019,09,30,15,42,14.10
2019,09,30,15,43,14.10
2019,09,30,15,44,14.10
2019,09,30,15,45,14.20
2019,09,30,15,46,14.20
2019,09,30,15,47,14.20
2019,09,30,15,48,14.20
2019,09,30,15,49,14.20
2019,09,30,15,50,14.10
2019,09,30,15,51,14.00
2019,09,30,15,52,14.00
2019,09,30,15,53,13.90
2019,09,30,15,54,13.90
2019,09,30,15,55,13.90
2019,09,30,15,56,14.00
2019,09,30,15,57,14.00
2019,09,30,15,58,14.10
2019,09,30,15,59,14.10
2019,09,30,16,00,14.10
2019,09,30,16,01,14.20
2019,09,30,16,02,14.20
2019,09,30,16,03,14.20
2019,09,30,16,04,14.20
2019,09,30,16,05,14.20
2019,09,30,16,06,14.10
2019,09,30,16,07,14.00
2019,09,30,16,08,13.80
2019,09,30,16,09,13.60
2019,09,30,16,10,13.60
2019,09,30,16,11,13.50
2019,09,30,16,12,13.50
2019,09,30,16,13,13.50
2019,09,30,16,14,13.40
2019,09,30,16,15,13.40
2019,09,30,16,16,13.40
2019,09,30,16,17,13.50
2019,09,30,16,18,13.60
2019,09,30,16,19,13.60
2019,09,30,16,20,13.70
2019,09,30,16,21,13.80
2019,09,30,16,22,13.80
2019,09,30,16,23,13.80
2019,09,30,16,24,13.80
2019,09,30,16,25,13.80
2019,09,30,16,26,13.70
2019,09,30,16,27,13.70
2019,09,30,16,28,13.70
2019,09,30,16,29,13.60
2019,09,30,16,30,13.60
2019,09,30,16,31,13.50
2019,09,30,16,32,13.50
2019,09,30,16,33,13.40
2019,09,30,16,34,13.40
2019,09,30,16,35,13.40
2019,09,30,16,36,13.50
2019,09,30,16,37,13.60
2019,09,30,16,38,13.70
2019,09,30,16,39,13.80
2019,09,30,16,40,13.90
2019,09,30,16,41,13.90
2019,09,30,16,42,14.00
2019,09,30,16,43,14.10
2019,09,30,16,44,14.10
2019,09,30,16,45,14.10
2019,09,30,16,46,14.10
2019,09,30,16,47,14.00
2019,09,30,16,48,14.00
2019,09,30,16,49,13.90
2019,09,30,16,50,13.90
2019,09,30,16,51,13.90
2019,09,30,16,52,13.90
2019,09,30,16,53,13.90
2019,09,30,16,54,13.80
2019,09,30,16,55,13.80
2019,09,30,16,56,13.80
2019,09,30,16,57,13.70
2019,09,30,16,58,13.70
2019,09,30,16,59,13.70
2019,09,30,17,00,13.70
2019,09,30,17,01,13.70
2019,09,30,17,02,13.60
2019,09,30,17,03,13.60
2019,09,30,17,04,13.50
2019,09,30,17,05,13.50
2019,09,30,17,06,13.50
2019,09,30,17,07,13.50
2019,09,30,17,08,13.50
2019,09,30,17,09,13.50
2019,09,30,17,10,13.50
2019,09,30,17,11,13.50
2019,09,30,17,12,13.50
2019,09,30,17,13,13.50
2019,09,30,17,14,13.50
2019,09,30,17,15,13.50
2019,09,30,17,16,13.50
2019,09,30,17,17,13.60
2019,09,30,17,18,13.60
2019,09,30,17,19,13.60
2019,09,30,17,20,13.60
2019,09,30,17,21,13.60
2019,09,30,17,22,13.60
2019,09,30,17,23,13.60
2019,09,30,17,24,13.70
2019,09,30,17,25,13.70
2019,09,30,17,26,13.70
2019,09,30,17,27,13.70
2019,09,30,17,28,13.70
2019,09,30,17,29,13.70
2019,09,30,17,30,13.80
2019,09,30,17,31,13.70
2019,09,30,17,32,13.70
2019,09,30,17,33,13.70
2019,09,30,17,34,13.70
2019,09,30,17,35,13.70
2019,09,30,17,36,13.70
2019,09,30,17,37,13.70
2019,09,30,17,38,13.70
2019,09,30,17,39,13.70
2019,09,30,17,40,13.70
2019,09,30,17,41,13.70
2019,09,30,17,42,13.70
2019,09,30,17,43,13.70
2019,09,30,17,44,13.80
2019,09,30,17,45,13.80
2019,09,30,17,46,13.80